TimePDT,TemperatureF,Dew PointF,Humidity,Sea Level PressureIn,VisibilityMPH,Wind Direction,Wind SpeedMPH,Gust SpeedMPH,PrecipitationIn,Events,Conditions,WindDirDegrees,DateUTC
12:53 AM,61.0,50.0,67,29.96,10.0,South,5.8,-,N/A,,Clear,170,2013-08-01 07:53:00
1:53 AM,60.1,50.0,69,29.95,10.0,South,5.8,-,N/A,,Clear,170,2013-08-01 08:53:00
2:53 AM,59.0,48.9,69,29.95,10.0,SSE,5.8,-,N/A,,Clear,160,2013-08-01 09:53:00
3:53 AM,57.9,50.0,75,29.95,10.0,South,5.8,-,N/A,,Clear,170,2013-08-01 10:53:00
4:53 AM,57.0,50.0,77,29.96,10.0,SSE,4.6,-,N/A,,Clear,160,2013-08-01 11:53:00
5:53 AM,57.0,48.9,74,29.97,10.0,SSE,3.5,-,N/A,,Clear,160,2013-08-01 12:53:00
6:53 AM,57.9,50.0,75,29.98,10.0,South,6.9,-,N/A,,Clear,170,2013-08-01 13:53:00
7:53 AM,60.1,50.0,69,29.99,10.0,South,10.4,18.4,N/A,,Clear,190,2013-08-01 14:53:00
8:53 AM,63.0,51.1,65,30.00,10.0,SSW,11.5,18.4,N/A,,Clear,200,2013-08-01 15:53:00
9:53 AM,68.0,51.1,55,30.01,10.0,South,9.2,-,N/A,,Clear,180,2013-08-01 16:53:00
10:53 AM,72.0,52.0,49,30.01,10.0,South,9.2,-,N/A,,Clear,180,2013-08-01 17:53:00
11:53 AM,75.9,50.0,40,30.01,10.0,SW,10.4,17.3,N/A,,Clear,220,2013-08-01 18:53:00
12:53 PM,79.0,50.0,36,30.00,10.0,South,6.9,-,N/A,,Clear,180,2013-08-01 19:53:00
1:53 PM,81.0,48.0,31,29.99,10.0,SW,8.1,-,N/A,,Clear,230,2013-08-01 20:53:00
2:53 PM,82.9,46.9,28,29.97,10.0,South,8.1,-,N/A,,Clear,170,2013-08-01 21:53:00
3:53 PM,84.0,44.1,25,29.94,10.0,Variable,6.9,-,N/A,,Clear,0,2013-08-01 22:53:00
4:53 PM,86.0,45.0,24,29.92,10.0,SW,13.8,18.4,N/A,,Clear,220,2013-08-01 23:53:00
5:53 PM,84.0,45.0,25,29.91,10.0,WSW,13.8,-,N/A,,Clear,240,2013-08-02 00:53:00
6:53 PM,79.0,48.9,35,29.90,10.0,SW,12.7,-,N/A,,Clear,230,2013-08-02 01:53:00
7:53 PM,73.9,48.9,41,29.90,10.0,South,6.9,-,N/A,,Clear,190,2013-08-02 02:53:00
8:53 PM,70.0,48.9,47,29.90,10.0,SW,9.2,-,N/A,,Clear,220,2013-08-02 03:53:00
9:53 PM,66.0,50.0,56,29.91,10.0,South,4.6,-,N/A,,Clear,180,2013-08-02 04:53:00
10:53 PM,64.0,51.1,63,29.91,10.0,South,3.5,-,N/A,,Clear,180,2013-08-02 05:53:00
11:53 PM,63.0,51.1,65,29.91,10.0,SSE,3.5,-,N/A,,Clear,160,2013-08-02 06:53:00